Time,TemperatureF,DewpointF,PressureIn,WindDirection,WindDirectionDegrees,WindSpeedMPH,WindSpeedGustMPH,Humidity,HourlyPrecipIn,Conditions,Clouds,dailyrainin,SolarRadiationWatts/m^2,SoftwareType,DateUTC
2014-12-22 00:04:00,27.3,25.0,30.01,East,101,0.0,0.0,91,0.00,,---,0.00,0.00,VWS V14.01,2014-12-22 05:04:00,
2014-12-22 00:09:00,27.1,24.8,30.01,East,101,0.0,0.0,91,0.00,,---,0.00,0.00,VWS V14.01,2014-12-22 05:09:00,
2014-12-22 00:14:00,27.0,24.7,30.01,East,101,0.0,0.0,91,0.00,,---,0.00,0.00,VWS V14.01,2014-12-22 05:14:00,
2014-12-22 00:19:00,27.0,24.7,30.01,East,101,0.0,0.0,91,0.00,,---,0.00,0.00,VWS V14.01,2014-12-22 05:19:00,
2014-12-22 00:24:00,27.1,24.8,30.01,East,101,0.0,0.0,91,0.00,,---,0.00,0.00,VWS V14.01,2014-12-22 05:24:00,
2014-12-22 00:29:00,27.3,25.0,30.00,East,101,0.0,0.0,91,0.00,,---,0.00,0.00,VWS V14.01,2014-12-22 05:29:00,
2014-12-22 00:35:00,27.5,25.2,30.00,East,101,0.0,0.0,91,0.00,,---,0.00,0.00,VWS V14.01,2014-12-22 05:35:00,
2014-12-22 00:40:00,27.5,25.2,30.00,East,101,0.0,0.0,91,0.00,,---,0.00,0.00,VWS V14.01,2014-12-22 05:40:00,
2014-12-22 00:45:00,27.4,25.1,29.99,East,101,0.0,0.0,91,0.00,,---,0.00,0.00,VWS V14.01,2014-12-22 05:45:00,
2014-12-22 00:50:00,27.4,25.1,29.98,East,101,0.0,0.0,91,0.00,,---,0.00,0.00,VWS V14.01,2014-12-22 05:50:00,
2014-12-22 00:55:00,27.4,25.1,29.98,East,101,0.0,0.0,91,0.00,,---,0.00,0.00,VWS V14.01,2014-12-22 05:55:00,
2014-12-22 01:00:00,27.4,25.1,29.99,East,101,0.0,0.0,91,0.00,,---,0.00,0.00,VWS V14.01,2014-12-22 06:00:00,
2014-12-22 01:05:00,27.4,25.1,29.98,East,101,0.0,0.0,91,0.00,,---,0.00,0.00,VWS V14.01,2014-12-22 06:05:00,
2014-12-22 01:10:00,27.2,24.7,29.98,East,101,0.0,0.0,90,0.00,,---,0.00,0.00,VWS V14.01,2014-12-22 06:10:00,
2014-12-22 01:15:00,27.3,25.0,29.98,East,101,0.0,0.0,91,0.00,,---,0.00,0.00,VWS V14.01,2014-12-22 06:15:00,
2014-12-22 01:20:00,27.4,25.1,29.97,East,101,0.0,0.0,91,0.00,,---,0.00,0.00,VWS V14.01,2014-12-22 06:20:00,
2014-12-22 01:25:00,27.2,24.7,29.97,East,101,0.0,0.0,90,0.00,,---,0.00,0.00,VWS V14.01,2014-12-22 06:25:00,
2014-12-22 01:30:00,27.1,24.8,29.97,East,101,0.0,0.0,91,0.00,,---,0.00,0.00,VWS V14.01,2014-12-22 06:30:00,
2014-12-22 01:35:00,27.3,25.0,29.97,East,101,0.0,0.0,91,0.00,,---,0.00,0.00,VWS V14.01,2014-12-22 06:35:00,
2014-12-22 01:40:00,27.3,25.0,29.97,East,101,0.0,0.0,91,0.00,,---,0.00,0.00,VWS V14.01,2014-12-22 06:40:00,
2014-12-22 01:45:00,27.2,24.7,29.97,East,101,0.0,0.0,90,0.00,,---,0.00,0.00,VWS V14.01,2014-12-22 06:45:00,
2014-12-22 01:50:00,27.5,25.2,29.97,East,101,0.0,0.0,91,0.00,,---,0.00,0.00,VWS V14.01,2014-12-22 06:50:00,
2014-12-22 01:55:00,27.6,25.1,29.97,East,101,0.0,0.0,90,0.00,,---,0.00,0.00,VWS V14.01,2014-12-22 06:55:00,
2014-12-22 02:03:00,27.6,25.1,29.97,North,0,0.0,0.0,90,0.00,,---,0.00,0.00,VWS V14.01,2014-12-22 07:03:00,
2014-12-22 02:08:00,27.4,24.9,29.97,East,101,0.0,0.0,90,0.00,,---,0.00,0.00,VWS V14.01,2014-12-22 07:08:00,
2014-12-22 02:13:00,27.4,24.9,29.97,East,101,0.0,0.0,90,0.00,,---,0.00,0.00,VWS V14.01,2014-12-22 07:13:00,
2014-12-22 02:18:00,27.5,25.2,29.97,East,101,0.0,0.0,91,0.00,,---,0.00,0.00,VWS V14.01,2014-12-22 07:18:00,
2014-12-22 02:23:00,27.4,24.9,29.96,East,101,0.0,0.0,90,0.00,,---,0.00,0.00,VWS V14.01,2014-12-22 07:23:00,
2014-12-22 02:28:00,27.2,24.7,29.97,East,101,0.0,0.0,90,0.00,,---,0.00,0.00,VWS V14.01,2014-12-22 07:28:00,
2014-12-22 02:33:00,27.0,24.5,29.97,East,101,0.0,0.0,90,0.00,,---,0.00,0.00,VWS V14.01,2014-12-22 07:33:00,
2014-12-22 02:38:00,27.0,24.7,29.96,East,101,0.0,0.0,91,0.00,,---,0.00,0.00,VWS V14.01,2014-12-22 07:38:00,
2014-12-22 02:43:00,27.1,24.8,29.97,East,101,0.0,0.0,91,0.00,,---,0.00,0.00,VWS V14.01,2014-12-22 07:43:00,
2014-12-22 02:48:00,27.3,25.0,29.97,East,101,0.0,0.0,91,0.00,,---,0.00,0.00,VWS V14.01,2014-12-22 07:48:00,
2014-12-22 02:53:00,27.3,25.0,29.97,East,101,0.0,0.0,91,0.00,,---,0.00,0.00,VWS V14.01,2014-12-22 07:53:00,
2014-12-22 02:58:00,27.3,25.0,29.96,East,101,0.0,0.0,91,0.00,,---,0.00,0.00,VWS V14.01,2014-12-22 07:58:00,
2014-12-22 03:03:00,27.1,24.8,29.96,East,101,0.0,0.0,91,0.00,,---,0.00,0.00,VWS V14.01,2014-12-22 08:03:00,
2014-12-22 03:08:00,27.0,24.5,29.96,East,101,0.0,0.0,90,0.00,,---,0.00,0.00,VWS V14.01,2014-12-22 08:08:00,
2014-12-22 03:13:00,27.0,24.7,29.95,East,101,0.0,0.0,91,0.00,,---,0.00,0.00,VWS V14.01,2014-12-22 08:13:00,
2014-12-22 03:18:00,26.9,24.6,29.95,East,101,0.0,0.0,91,0.00,,---,0.00,0.00,VWS V14.01,2014-12-22 08:18:00,
2014-12-22 03:23:00,26.9,24.6,29.95,East,101,0.0,0.0,91,0.00,,---,0.00,0.00,VWS V14.01,2014-12-22 08:23:00,
2014-12-22 03:28:00,26.9,24.6,29.95,East,101,0.0,0.0,91,0.00,,---,0.00,0.00,VWS V14.01,2014-12-22 08:28:00,
2014-12-22 03:33:00,27.1,24.8,29.95,East,101,0.0,0.0,91,0.00,,---,0.00,0.00,VWS V14.01,2014-12-22 08:33:00,
2014-12-22 03:38:00,27.3,25.0,29.95,East,101,0.0,0.0,91,0.00,,---,0.00,0.00,VWS V14.01,2014-12-22 08:38:00,
2014-12-22 03:43:00,27.6,25.3,29.95,East,101,0.0,0.0,91,0.00,,---,0.00,0.00,VWS V14.01,2014-12-22 08:43:00,
2014-12-22 03:48:00,27.8,25.5,29.94,East,101,0.0,0.0,91,0.00,,---,0.00,0.00,VWS V14.01,2014-12-22 08:48:00,
2014-12-22 03:53:00,28.3,26.0,29.94,East,101,0.0,0.0,91,0.00,,---,0.00,0.00,VWS V14.01,2014-12-22 08:53:00,
2014-12-22 03:58:00,28.7,26.4,29.94,East,101,0.0,0.0,91,0.00,,---,0.00,0.00,VWS V14.01,2014-12-22 08:58:00,
2014-12-22 04:03:00,29.0,26.4,29.94,East,101,0.0,0.0,90,0.00,,---,0.00,0.00,VWS V14.01,2014-12-22 09:03:00,
2014-12-22 04:08:00,29.3,26.7,29.94,East,101,0.0,0.0,90,0.00,,---,0.00,0.00,VWS V14.01,2014-12-22 09:08:00,
2014-12-22 04:13:00,29.3,26.5,29.93,East,101,0.0,0.0,89,0.00,,---,0.00,0.00,VWS V14.01,2014-12-22 09:13:00,
2014-12-22 04:18:00,29.2,26.4,29.94,East,101,0.0,0.0,89,0.00,,---,0.00,0.00,VWS V14.01,2014-12-22 09:18:00,
2014-12-22 04:23:00,29.3,26.5,29.93,East,101,0.0,0.0,89,0.00,,---,0.00,0.00,VWS V14.01,2014-12-22 09:23:00,
2014-12-22 04:28:00,29.5,26.7,29.93,East,101,0.0,0.0,89,0.00,,---,0.00,0.00,VWS V14.01,2014-12-22 09:28:00,
2014-12-22 04:33:00,29.7,26.9,29.93,East,101,0.0,0.0,89,0.00,,---,0.00,0.00,VWS V14.01,2014-12-22 09:33:00,
2014-12-22 04:38:00,29.8,26.7,29.92,East,101,0.0,0.0,88,0.00,,---,0.00,0.00,VWS V14.01,2014-12-22 09:38:00,
2014-12-22 04:43:00,29.9,26.8,29.92,East,101,0.0,0.0,88,0.00,,---,0.00,0.00,VWS V14.01,2014-12-22 09:43:00,
2014-12-22 04:48:00,29.8,26.7,29.92,East,101,0.0,0.0,88,0.00,,---,0.00,0.00,VWS V14.01,2014-12-22 09:48:00,
2014-12-22 04:53:00,29.8,26.7,29.92,East,101,0.0,0.0,88,0.00,,---,0.00,0.00,VWS V14.01,2014-12-22 09:53:00,
2014-12-22 04:58:00,30.1,27.3,29.92,East,101,0.0,0.0,89,0.00,,---,0.00,0.00,VWS V14.01,2014-12-22 09:58:00,
2014-12-22 05:03:00,30.4,27.3,29.92,East,101,0.0,0.0,88,0.00,,---,0.00,0.00,VWS V14.01,2014-12-22 10:03:00,
2014-12-22 05:08:00,30.7,27.6,29.92,East,101,0.0,0.0,88,0.00,,---,0.00,0.00,VWS V14.01,2014-12-22 10:08:00,
2014-12-22 05:13:00,30.8,27.7,29.92,East,101,0.0,0.0,88,0.00,,---,0.00,0.00,VWS V14.01,2014-12-22 10:13:00,
2014-12-22 05:18:00,30.9,27.5,29.92,East,101,0.0,0.0,87,0.00,,---,0.00,0.00,VWS V14.01,2014-12-22 10:18:00,
2014-12-22 05:23:00,31.0,27.6,29.92,East,101,0.0,0.0,87,0.00,,---,0.00,0.00,VWS V14.01,2014-12-22 10:23:00,
2014-12-22 05:28:00,30.8,27.4,29.92,East,101,0.0,0.0,87,0.00,,---,0.00,0.00,VWS V14.01,2014-12-22 10:28:00,
2014-12-22 05:33:00,30.8,27.4,29.92,East,101,0.0,0.0,87,0.00,,---,0.00,0.00,VWS V14.01,2014-12-22 10:33:00,
2014-12-22 05:38:00,30.9,27.5,29.92,East,101,0.0,0.0,87,0.00,,---,0.00,0.00,VWS V14.01,2014-12-22 10:38:00,
2014-12-22 05:43:00,31.0,27.6,29.92,East,101,0.0,0.0,87,0.00,,---,0.00,0.00,VWS V14.01,2014-12-22 10:43:00,
2014-12-22 05:48:00,31.1,27.7,29.92,East,101,0.0,0.0,87,0.00,,---,0.00,0.00,VWS V14.01,2014-12-22 10:48:00,
2014-12-22 05:53:00,31.2,27.8,29.92,East,101,0.0,0.0,87,0.00,,---,0.00,0.00,VWS V14.01,2014-12-22 10:53:00,
2014-12-22 05:58:00,31.3,27.9,29.92,East,101,0.0,0.0,87,0.00,,---,0.00,0.00,VWS V14.01,2014-12-22 10:58:00,
2014-12-22 06:03:00,31.5,28.1,29.92,East,101,0.0,0.0,87,0.00,,---,0.00,0.00,VWS V14.01,2014-12-22 11:03:00,
2014-12-22 06:08:00,31.6,28.2,29.92,East,101,0.0,0.0,87,0.00,,---,0.00,0.00,VWS V14.01,2014-12-22 11:08:00,
2014-12-22 06:13:00,31.7,28.3,29.92,East,101,0.0,0.0,87,0.00,,---,0.00,0.00,VWS V14.01,2014-12-22 11:13:00,
2014-12-22 06:18:00,31.9,28.5,29.92,East,101,0.0,2.0,87,0.00,,---,0.00,0.00,VWS V14.01,2014-12-22 11:18:00,
2014-12-22 06:23:00,32.0,28.6,29.92,East,101,0.0,0.0,87,0.00,,---,0.00,0.00,VWS V14.01,2014-12-22 11:23:00,
2014-12-22 06:28:00,32.1,28.7,29.91,East,101,0.0,0.0,87,0.00,,---,0.00,0.00,VWS V14.01,2014-12-22 11:28:00,
2014-12-22 06:33:00,32.2,28.5,29.91,East,101,2.0,3.0,86,0.00,,---,0.00,0.00,VWS V14.01,2014-12-22 11:33:00,
2014-12-22 06:38:00,32.3,28.6,29.92,East,101,0.0,0.0,86,0.00,,---,0.00,0.00,VWS V14.01,2014-12-22 11:38:00,
2014-12-22 06:43:00,32.3,28.6,29.91,East,101,0.0,0.0,86,0.00,,---,0.00,0.00,VWS V14.01,2014-12-22 11:43:00,
2014-12-22 06:48:00,32.5,28.8,29.91,East,101,1.0,4.0,86,0.00,,---,0.00,0.00,VWS V14.01,2014-12-22 11:48:00,
2014-12-22 06:53:00,32.6,28.9,29.92,East,101,0.0,0.0,86,0.00,,---,0.00,0.00,VWS V14.01,2014-12-22 11:53:00,
2014-12-22 06:58:00,32.7,29.0,29.92,East,101,0.0,0.0,86,0.00,,---,0.00,0.00,VWS V14.01,2014-12-22 11:58:00,
2014-12-22 07:03:00,32.7,29.0,29.92,East,101,4.0,4.0,86,0.00,,---,0.00,0.00,VWS V14.01,2014-12-22 12:03:00,
2014-12-22 07:08:00,32.8,29.1,29.92,East,101,1.0,4.0,86,0.00,,---,0.00,0.00,VWS V14.01,2014-12-22 12:08:00,
2014-12-22 07:13:00,32.8,29.1,29.92,East,101,0.0,0.0,86,0.00,,---,0.00,0.00,VWS V14.01,2014-12-22 12:13:00,
2014-12-22 07:18:00,32.9,29.2,29.92,East,101,0.0,0.0,86,0.00,,---,0.00,0.00,VWS V14.01,2014-12-22 12:18:00,
2014-12-22 07:23:00,33.0,29.3,29.92,East,101,0.0,0.0,86,0.00,,---,0.00,0.00,VWS V14.01,2014-12-22 12:23:00,
2014-12-22 07:28:00,33.1,29.1,29.92,East,101,4.0,4.0,85,0.00,,---,0.00,0.00,VWS V14.01,2014-12-22 12:28:00,
2014-12-22 07:33:00,33.1,29.1,29.92,East,101,0.0,0.0,85,0.00,,---,0.00,0.00,VWS V14.01,2014-12-22 12:33:00,
2014-12-22 07:38:00,33.2,29.2,29.91,East,101,3.0,4.0,85,0.00,,---,0.00,0.00,VWS V14.01,2014-12-22 12:38:00,
2014-12-22 07:43:00,33.2,29.2,29.92,East,101,0.0,0.0,85,0.00,,---,0.00,0.00,VWS V14.01,2014-12-22 12:43:00,
2014-12-22 07:48:00,33.2,29.2,29.92,East,101,0.0,0.0,85,0.00,,---,0.00,0.00,VWS V14.01,2014-12-22 12:48:00,
2014-12-22 07:53:00,33.3,29.6,29.91,East,101,1.0,2.0,86,0.00,,---,0.00,0.00,VWS V14.01,2014-12-22 12:53:00,
2014-12-22 07:58:00,33.4,29.4,29.92,East,101,0.0,0.0,85,0.00,,---,0.00,0.00,VWS V14.01,2014-12-22 12:58:00,
2014-12-22 08:03:00,33.4,29.7,29.91,East,101,2.0,3.0,86,0.00,,---,0.00,5.00,VWS V14.01,2014-12-22 13:03:00,
2014-12-22 08:08:00,33.5,29.8,29.91,East,101,1.0,3.0,86,0.00,,---,0.00,9.00,VWS V14.01,2014-12-22 13:08:00,
2014-12-22 08:13:00,33.6,29.6,29.91,East,101,0.0,0.0,85,0.00,,---,0.00,18.00,VWS V14.01,2014-12-22 13:13:00,
2014-12-22 08:18:00,33.7,29.7,29.91,East,101,0.0,0.0,85,0.00,,---,0.00,30.00,VWS V14.01,2014-12-22 13:18:00,
2014-12-22 08:23:00,34.0,30.0,29.91,East,101,0.0,0.0,85,0.00,,---,0.00,37.00,VWS V14.01,2014-12-22 13:23:00,
2014-12-22 08:28:00,34.3,30.3,29.91,East,101,1.0,1.0,85,0.00,,---,0.00,46.00,VWS V14.01,2014-12-22 13:28:00,
2014-12-22 08:33:00,34.4,30.4,29.91,East,101,2.0,3.0,85,0.00,,---,0.00,42.00,VWS V14.01,2014-12-22 13:33:00,
2014-12-22 08:38:00,34.4,30.4,29.90,East,101,0.0,0.0,85,0.00,,---,0.00,35.00,VWS V14.01,2014-12-22 13:38:00,
2014-12-22 08:43:00,34.5,30.5,29.90,East,101,0.0,0.0,85,0.00,,---,0.00,51.00,VWS V14.01,2014-12-22 13:43:00,
2014-12-22 08:48:00,34.7,30.4,29.90,East,101,0.0,0.0,84,0.00,,---,0.00,95.00,VWS V14.01,2014-12-22 13:48:00,
2014-12-22 08:53:00,34.8,30.5,29.90,East,101,3.0,3.0,84,0.00,,---,0.00,123.00,VWS V14.01,2014-12-22 13:53:00,
2014-12-22 08:58:00,35.3,31.0,29.90,East,101,0.0,0.0,84,0.00,,---,0.00,169.00,VWS V14.01,2014-12-22 13:58:00,
2014-12-22 09:03:00,35.8,31.1,29.90,East,101,2.0,2.0,83,0.00,,---,0.00,93.00,VWS V14.01,2014-12-22 14:03:00,
2014-12-22 09:08:00,35.9,31.2,29.91,East,101,2.0,2.0,83,0.00,,---,0.00,70.00,VWS V14.01,2014-12-22 14:08:00,
2014-12-22 09:13:00,36.1,31.5,29.90,East,101,0.0,0.0,83,0.00,,---,0.00,65.00,VWS V14.01,2014-12-22 14:13:00,
2014-12-22 09:18:00,36.1,31.1,29.91,East,101,0.0,0.0,82,0.00,,---,0.00,77.00,VWS V14.01,2014-12-22 14:18:00,
2014-12-22 09:23:00,36.3,31.6,29.90,East,101,0.0,1.0,83,0.00,,---,0.00,58.00,VWS V14.01,2014-12-22 14:23:00,
2014-12-22 09:28:00,36.4,31.4,29.90,East,101,1.0,3.0,82,0.00,,---,0.00,62.00,VWS V14.01,2014-12-22 14:28:00,
2014-12-22 09:33:00,36.5,31.5,29.90,East,101,0.0,1.0,82,0.00,,---,0.00,83.00,VWS V14.01,2014-12-22 14:33:00,
2014-12-22 09:38:00,36.7,31.7,29.90,East,101,0.0,2.0,82,0.00,,---,0.00,142.00,VWS V14.01,2014-12-22 14:38:00,
2014-12-22 09:43:00,37.1,31.8,29.90,East,101,0.0,2.0,81,0.00,,---,0.00,179.00,VWS V14.01,2014-12-22 14:43:00,
2014-12-22 09:48:00,37.7,32.4,29.90,East,101,0.0,0.0,81,0.00,,---,0.00,167.00,VWS V14.01,2014-12-22 14:48:00,
2014-12-22 09:53:00,37.9,32.3,29.90,East,101,0.0,0.0,80,0.00,,---,0.00,156.00,VWS V14.01,2014-12-22 14:53:00,
2014-12-22 09:58:00,38.2,32.6,29.90,East,101,0.0,0.0,80,0.00,,---,0.00,176.00,VWS V14.01,2014-12-22 14:58:00,
2014-12-22 10:03:00,38.8,32.9,29.89,East,101,0.0,0.0,79,0.00,,---,0.00,188.00,VWS V14.01,2014-12-22 15:03:00,
2014-12-22 10:08:00,39.2,32.9,29.89,East,101,0.0,0.0,78,0.00,,---,0.00,185.00,VWS V14.01,2014-12-22 15:08:00,
2014-12-22 10:13:00,39.5,33.2,29.89,East,101,0.0,0.0,78,0.00,,---,0.00,229.00,VWS V14.01,2014-12-22 15:13:00,
2014-12-22 10:18:00,40.0,33.7,29.89,East,101,0.0,0.0,78,0.00,,---,0.00,244.00,VWS V14.01,2014-12-22 15:18:00,
2014-12-22 10:23:00,40.6,34.0,29.89,East,101,0.0,0.0,77,0.00,,---,0.00,306.00,VWS V14.01,2014-12-22 15:23:00,
2014-12-22 10:28:00,41.3,34.3,29.89,East,101,2.0,3.0,76,0.00,,---,0.00,279.00,VWS V14.01,2014-12-22 15:28:00,
2014-12-22 10:33:00,42.1,34.4,29.89,East,101,0.0,1.0,74,0.00,,---,0.00,431.00,VWS V14.01,2014-12-22 15:33:00,
2014-12-22 10:38:00,43.1,35.0,29.88,East,101,4.0,4.0,73,0.00,,---,0.00,399.00,VWS V14.01,2014-12-22 15:38:00,
2014-12-22 10:44:00,43.8,35.4,29.89,ESE,102,0.0,0.0,72,0.00,,---,0.00,432.00,VWS V14.01,2014-12-22 15:44:00,
2014-12-22 10:49:00,44.4,35.6,29.88,ESE,102,0.0,0.0,71,0.00,,---,0.00,301.00,VWS V14.01,2014-12-22 15:49:00,
2014-12-22 10:54:00,44.8,35.3,29.88,ESE,105,2.0,2.0,69,0.00,,---,0.00,253.00,VWS V14.01,2014-12-22 15:54:00,
2014-12-22 10:59:00,44.4,34.9,29.87,ESE,103,0.0,0.0,69,0.00,,---,0.00,250.00,VWS V14.01,2014-12-22 15:59:00,
2014-12-22 11:04:00,44.7,35.2,29.87,ESE,103,3.0,3.0,69,0.00,,---,0.00,230.00,VWS V14.01,2014-12-22 16:04:00,
2014-12-22 11:09:00,44.7,35.5,29.86,ESE,103,1.0,5.0,70,0.00,,---,0.00,239.00,VWS V14.01,2014-12-22 16:09:00,
2014-12-22 11:14:00,44.6,35.4,29.87,ESE,103,0.0,0.0,70,0.00,,---,0.00,260.00,VWS V14.01,2014-12-22 16:14:00,
2014-12-22 11:19:00,44.8,35.6,29.86,ESE,103,5.0,6.0,70,0.00,,---,0.00,257.00,VWS V14.01,2014-12-22 16:19:00,
2014-12-22 11:24:00,44.8,35.6,29.86,ESE,103,2.0,3.0,70,0.00,,---,0.00,264.00,VWS V14.01,2014-12-22 16:24:00,
2014-12-22 11:29:00,45.1,35.9,29.86,ESE,103,3.0,4.0,70,0.00,,---,0.00,299.00,VWS V14.01,2014-12-22 16:29:00,
2014-12-22 11:34:00,45.6,36.4,29.85,ESE,103,2.0,3.0,70,0.00,,---,0.00,313.00,VWS V14.01,2014-12-22 16:34:00,
2014-12-22 11:39:00,46.0,36.4,29.84,ESE,103,0.0,0.0,69,0.00,,---,0.00,332.00,VWS V14.01,2014-12-22 16:39:00,
2014-12-22 11:44:00,46.8,36.4,29.84,ESE,103,4.0,6.0,67,0.00,,---,0.00,353.00,VWS V14.01,2014-12-22 16:44:00,
2014-12-22 11:49:00,47.1,36.7,29.84,ESE,102,2.0,4.0,67,0.00,,---,0.00,225.00,VWS V14.01,2014-12-22 16:49:00,
2014-12-22 11:54:00,47.5,37.1,29.83,ESE,103,0.0,4.0,67,0.00,,---,0.00,276.00,VWS V14.01,2014-12-22 16:54:00,
2014-12-22 11:59:00,48.2,37.8,29.83,ESE,103,0.0,2.0,67,0.00,,---,0.00,223.00,VWS V14.01,2014-12-22 16:59:00,
2014-12-22 12:04:00,48.2,37.8,29.83,ESE,102,4.0,4.0,67,0.00,,---,0.00,334.00,VWS V14.01,2014-12-22 17:04:00,
2014-12-22 12:09:00,48.5,37.7,29.82,ESE,102,2.0,2.0,66,0.00,,---,0.00,417.00,VWS V14.01,2014-12-22 17:09:00,
2014-12-22 12:14:00,49.3,38.0,29.82,ESE,102,0.0,1.0,65,0.00,,---,0.00,503.00,VWS V14.01,2014-12-22 17:14:00,
2014-12-22 12:19:00,49.7,38.4,29.82,ESE,102,0.0,2.0,65,0.00,,---,0.00,450.00,VWS V14.01,2014-12-22 17:19:00,
2014-12-22 12:24:00,50.6,38.5,29.82,ESE,102,0.0,0.0,63,0.00,,---,0.00,401.00,VWS V14.01,2014-12-22 17:24:00,
2014-12-22 12:29:00,50.9,38.8,29.82,ESE,102,0.0,3.0,63,0.00,,---,0.00,304.00,VWS V14.01,2014-12-22 17:29:00,
2014-12-22 12:34:00,51.0,39.3,29.82,ESE,102,0.0,1.0,64,0.00,,---,0.00,417.00,VWS V14.01,2014-12-22 17:34:00,
2014-12-22 12:39:00,51.6,39.4,29.81,ESE,102,0.0,5.0,63,0.00,,---,0.00,578.00,VWS V14.01,2014-12-22 17:39:00,
2014-12-22 12:44:00,51.8,39.2,29.80,East,101,0.0,1.0,62,0.00,,---,0.00,264.00,VWS V14.01,2014-12-22 17:44:00,
2014-12-22 12:49:00,51.3,39.2,29.80,SSE,168,3.0,6.0,63,0.00,,---,0.00,220.00,VWS V14.01,2014-12-22 17:49:00,
2014-12-22 12:54:00,51.0,39.3,29.80,SSE,165,0.0,4.0,64,0.00,,---,0.00,229.00,VWS V14.01,2014-12-22 17:54:00,
2014-12-22 12:59:00,50.8,39.1,29.79,South,173,6.0,6.0,64,0.00,,---,0.00,227.00,VWS V14.01,2014-12-22 17:59:00,
2014-12-22 13:04:00,50.6,39.3,29.79,SE,146,0.0,5.0,65,0.00,,---,0.00,274.00,VWS V14.01,2014-12-22 18:04:00,
2014-12-22 13:09:00,50.9,39.6,29.79,SE,144,0.0,1.0,65,0.00,,---,0.00,278.00,VWS V14.01,2014-12-22 18:09:00,
2014-12-22 13:14:00,51.0,39.3,29.79,SE,136,0.0,1.0,64,0.00,,---,0.00,278.00,VWS V14.01,2014-12-22 18:14:00,
2014-12-22 13:19:00,51.2,39.5,29.78,ESE,119,3.0,4.0,64,0.00,,---,0.00,336.00,VWS V14.01,2014-12-22 18:19:00,
2014-12-22 13:24:00,51.2,39.8,29.78,SE,126,0.0,0.0,65,0.00,,---,0.00,265.00,VWS V14.01,2014-12-22 18:24:00,
2014-12-22 13:29:00,51.5,39.7,29.78,SE,126,2.0,4.0,64,0.00,,---,0.00,250.00,VWS V14.01,2014-12-22 18:29:00,
2014-12-22 13:34:00,51.4,39.7,29.78,SE,127,0.0,5.0,64,0.00,,---,0.00,239.00,VWS V14.01,2014-12-22 18:34:00,
2014-12-22 13:39:00,51.3,40.0,29.78,SE,126,0.0,0.0,65,0.00,,---,0.00,241.00,VWS V14.01,2014-12-22 18:39:00,
2014-12-22 13:44:00,51.3,40.0,29.76,SE,128,1.0,2.0,65,0.00,,---,0.00,204.00,VWS V14.01,2014-12-22 18:44:00,
2014-12-22 13:49:00,51.3,40.0,29.76,SE,127,0.0,0.0,65,0.00,,---,0.00,186.00,VWS V14.01,2014-12-22 18:49:00,
2014-12-22 13:54:00,51.2,40.2,29.76,SE,127,3.0,3.0,66,0.00,,---,0.00,160.00,VWS V14.01,2014-12-22 18:54:00,
2014-12-22 13:59:00,51.1,40.2,29.75,SE,126,3.0,4.0,66,0.00,,---,0.00,141.00,VWS V14.01,2014-12-22 18:59:00,
2014-12-22 14:04:00,51.0,40.1,29.75,ESE,117,3.0,4.0,66,0.00,,---,0.00,116.00,VWS V14.01,2014-12-22 19:04:00,
2014-12-22 14:09:00,50.9,40.3,29.76,ESE,116,1.0,3.0,67,0.00,,---,0.00,142.00,VWS V14.01,2014-12-22 19:09:00,
2014-12-22 14:14:00,50.9,40.3,29.75,ESE,112,2.0,5.0,67,0.00,,---,0.00,135.00,VWS V14.01,2014-12-22 19:14:00,
2014-12-22 14:19:00,50.8,40.6,29.75,SE,125,2.0,4.0,68,0.00,,---,0.00,158.00,VWS V14.01,2014-12-22 19:19:00,
2014-12-22 14:24:00,51.0,40.8,29.74,ESE,121,2.0,4.0,68,0.00,,---,0.00,167.00,VWS V14.01,2014-12-22 19:24:00,
2014-12-22 14:29:00,51.2,40.6,29.75,ESE,115,3.0,3.0,67,0.00,,---,0.00,130.00,VWS V14.01,2014-12-22 19:29:00,
2014-12-22 14:34:00,51.2,41.0,29.74,ESE,106,0.0,3.0,68,0.00,,---,0.00,98.00,VWS V14.01,2014-12-22 19:34:00,
2014-12-22 14:39:00,51.0,40.8,29.74,ESE,103,1.0,2.0,68,0.00,,---,0.00,118.00,VWS V14.01,2014-12-22 19:39:00,
2014-12-22 14:44:00,50.8,40.6,29.74,ESE,107,2.0,5.0,68,0.00,,---,0.00,123.00,VWS V14.01,2014-12-22 19:44:00,
2014-12-22 14:49:00,50.8,41.0,29.74,ESE,104,2.0,4.0,69,0.00,,---,0.00,97.00,VWS V14.01,2014-12-22 19:49:00,
2014-12-22 14:54:00,50.6,40.8,29.74,South,169,4.0,6.0,69,0.00,,---,0.00,90.00,VWS V14.01,2014-12-22 19:54:00,
2014-12-22 14:59:00,50.4,40.6,29.74,South,171,6.0,9.0,69,0.00,,---,0.00,88.00,VWS V14.01,2014-12-22 19:59:00,
2014-12-22 15:04:00,50.3,40.9,29.73,East,83,5.0,5.0,70,0.00,,---,0.00,100.00,VWS V14.01,2014-12-22 20:04:00,
2014-12-22 15:09:00,50.3,40.9,29.73,SE,140,3.0,5.0,70,0.00,,---,0.00,83.00,VWS V14.01,2014-12-22 20:09:00,
2014-12-22 15:14:00,50.3,40.9,29.72,East,84,3.0,4.0,70,0.00,,---,0.00,107.00,VWS V14.01,2014-12-22 20:14:00,
2014-12-22 15:19:00,50.3,40.9,29.72,East,88,3.0,7.0,70,0.00,,---,0.00,83.00,VWS V14.01,2014-12-22 20:19:00,
2014-12-22 15:24:00,50.3,40.9,29.71,East,88,7.0,7.0,70,0.00,,---,0.00,69.00,VWS V14.01,2014-12-22 20:24:00,
2014-12-22 15:29:00,50.3,40.9,29.70,East,89,5.0,7.0,70,0.00,,---,0.00,49.00,VWS V14.01,2014-12-22 20:29:00,
2014-12-22 15:34:00,50.1,40.7,29.70,East,89,7.0,11.0,70,0.00,,---,0.00,49.00,VWS V14.01,2014-12-22 20:34:00,
2014-12-22 15:39:00,49.9,40.5,29.71,South,172,5.0,9.0,70,0.00,,---,0.00,40.00,VWS V14.01,2014-12-22 20:39:00,
2014-12-22 15:44:00,49.7,40.7,29.70,East,90,2.0,6.0,71,0.00,,---,0.00,44.00,VWS V14.01,2014-12-22 20:44:00,
2014-12-22 15:49:00,49.6,40.6,29.71,SE,136,6.0,6.0,71,0.00,,---,0.00,39.00,VWS V14.01,2014-12-22 20:49:00,
2014-12-22 15:54:00,49.6,40.6,29.70,SE,134,1.0,5.0,71,0.00,,---,0.00,39.00,VWS V14.01,2014-12-22 20:54:00,
2014-12-22 15:59:00,49.5,40.9,29.70,ESE,120,5.0,5.0,72,0.00,,---,0.00,39.00,VWS V14.01,2014-12-22 20:59:00,
2014-12-22 16:04:00,49.5,40.9,29.70,East,95,1.0,5.0,72,0.00,,---,0.00,30.00,VWS V14.01,2014-12-22 21:04:00,
2014-12-22 16:09:00,49.5,40.9,29.70,East,95,0.0,3.0,72,0.00,,---,0.00,40.00,VWS V14.01,2014-12-22 21:09:00,
2014-12-22 16:14:00,49.5,40.5,29.70,ESE,120,2.0,5.0,71,0.00,,---,0.00,37.00,VWS V14.01,2014-12-22 21:14:00,
2014-12-22 16:19:00,49.5,40.5,29.70,ESE,117,3.0,5.0,71,0.00,,---,0.00,39.00,VWS V14.01,2014-12-22 21:19:00,
2014-12-22 16:24:00,49.4,40.4,29.70,ESE,115,2.0,5.0,71,0.00,,---,0.00,40.00,VWS V14.01,2014-12-22 21:24:00,
2014-12-22 16:29:00,49.4,40.8,29.70,ESE,116,1.0,4.0,72,0.00,,---,0.00,46.00,VWS V14.01,2014-12-22 21:29:00,
2014-12-22 16:34:00,49.3,40.3,29.70,ESE,117,0.0,3.0,71,0.00,,---,0.00,25.00,VWS V14.01,2014-12-22 21:34:00,
2014-12-22 16:39:00,49.2,40.2,29.70,ESE,114,2.0,4.0,71,0.00,,---,0.00,18.00,VWS V14.01,2014-12-22 21:39:00,
2014-12-22 16:44:00,49.1,40.1,29.70,ESE,107,2.0,4.0,71,0.00,,---,0.00,12.00,VWS V14.01,2014-12-22 21:44:00,
2014-12-22 16:49:00,49.0,40.0,29.69,ESE,103,2.0,7.0,71,0.00,,---,0.00,11.00,VWS V14.01,2014-12-22 21:49:00,
2014-12-22 16:54:00,48.9,39.9,29.69,East,97,4.0,10.0,71,0.00,,---,0.00,7.00,VWS V14.01,2014-12-22 21:54:00,
2014-12-22 16:59:00,48.8,39.8,29.70,East,97,2.0,3.0,71,0.00,,---,0.00,0.00,VWS V14.01,2014-12-22 21:59:00,
2014-12-22 17:04:00,48.8,39.8,29.70,East,96,4.0,7.0,71,0.00,,---,0.00,0.00,VWS V14.01,2014-12-22 22:04:00,
2014-12-22 17:09:00,48.7,39.7,29.70,ESE,104,2.0,3.0,71,0.00,,---,0.00,0.00,VWS V14.01,2014-12-22 22:09:00,
2014-12-22 17:14:00,48.6,40.0,29.70,ESE,103,0.0,3.0,72,0.00,,---,0.00,0.00,VWS V14.01,2014-12-22 22:14:00,
2014-12-22 17:19:00,48.6,40.0,29.70,ESE,103,2.0,3.0,72,0.00,,---,0.00,0.00,VWS V14.01,2014-12-22 22:19:00,
2014-12-22 17:24:00,48.6,40.0,29.70,ESE,103,0.0,2.0,72,0.00,,---,0.00,0.00,VWS V14.01,2014-12-22 22:24:00,
2014-12-22 17:29:00,48.5,39.9,29.70,ESE,103,1.0,2.0,72,0.00,,---,0.00,0.00,VWS V14.01,2014-12-22 22:29:00,
2014-12-22 17:34:00,48.5,39.9,29.70,ESE,103,1.0,5.0,72,0.00,,---,0.00,0.00,VWS V14.01,2014-12-22 22:34:00,
2014-12-22 17:39:00,48.4,39.8,29.69,ESE,103,2.0,5.0,72,0.00,,---,0.00,0.00,VWS V14.01,2014-12-22 22:39:00,
2014-12-22 17:40:00,48.3,39.7,29.69,East,101,0.0,2.0,72,0.00,,---,0.00,0.00,VWS V14.01,2014-12-22 22:40:00,
2014-12-22 17:41:00,48.3,39.7,29.69,East,101,3.0,4.0,72,0.00,,---,0.00,0.00,VWS V14.01,2014-12-22 22:41:00,
2014-12-22 17:42:00,48.3,39.7,29.69,East,101,3.0,3.0,72,0.00,,---,0.00,0.00,VWS V14.01,2014-12-22 22:42:00,
2014-12-22 17:47:00,48.3,39.7,29.68,East,99,5.0,7.0,72,0.00,,---,0.00,0.00,VWS V14.01,2014-12-22 22:47:00,
2014-12-22 17:52:00,48.2,39.6,29.67,East,93,7.0,7.0,72,0.00,,---,0.00,0.00,VWS V14.01,2014-12-22 22:52:00,
2014-12-22 17:57:00,48.1,39.5,29.68,East,96,1.0,3.0,72,0.00,,---,0.00,0.00,VWS V14.01,2014-12-22 22:57:00,
2014-12-22 18:02:00,47.9,39.3,29.68,East,95,3.0,3.0,72,0.00,,---,0.00,0.00,VWS V14.01,2014-12-22 23:02:00,
2014-12-22 18:07:00,47.8,39.6,29.67,East,95,4.0,4.0,73,0.00,,---,0.00,0.00,VWS V14.01,2014-12-22 23:07:00,
2014-12-22 18:12:00,47.8,39.2,29.67,East,93,5.0,5.0,72,0.00,,---,0.00,0.00,VWS V14.01,2014-12-22 23:12:00,
2014-12-22 18:17:00,47.7,39.1,29.67,East,101,1.0,3.0,72,0.00,,---,0.00,0.00,VWS V14.01,2014-12-22 23:17:00,
2014-12-22 18:22:00,47.6,39.4,29.68,East,94,3.0,5.0,73,0.00,,---,0.00,0.00,VWS V14.01,2014-12-22 23:22:00,
2014-12-22 18:27:00,47.4,39.2,29.68,ESE,106,4.0,4.0,73,0.00,,---,0.00,0.00,VWS V14.01,2014-12-22 23:27:00,
2014-12-22 18:32:00,47.3,39.1,29.68,ESE,105,4.0,4.0,73,0.00,,---,0.00,0.00,VWS V14.01,2014-12-22 23:32:00,
2014-12-22 18:37:00,47.3,39.1,29.68,ESE,120,0.0,3.0,73,0.00,,---,0.00,0.00,VWS V14.01,2014-12-22 23:37:00,
2014-12-22 18:42:00,47.2,39.3,29.68,ESE,119,3.0,3.0,74,0.00,,---,0.00,0.00,VWS V14.01,2014-12-22 23:42:00,